Regional Weather Roundup
Issued by NWS

Home | Current Version | Previous Version | Graphics & Text | Print | Product List | Glossary On
Versions: 1 2 3 4 5 6 7 8 9 10 11 12 13 14 15 16 17 18 19 20 21 22 23 24 25 26 27 28 29 30 31 32 33 34 35 36 37 38 39 40 41 42 43 44 45 46 47 48 49 50
000
ASUS43 KDMX 031304
RWRIA

WEATHER ROUNDUP FOR IOWA
NATIONAL WEATHER SERVICE DES MOINES IA
  ISSUED BY NWS QUAD CITIES IA IL
700 AM CST TUE MAR 03 2015

NOTE: "FAIR" INDICATES FEW OR NO CLOUDS BELOW 12,000 FEET WITH NO
SIGNIFICANT WEATHER AND/OR OBSTRUCTIONS TO VISIBILITY.

* - THESE STATIONS ARE NOT NWS STATIONS...THUS NOT UNDER NWS
QUALITY CONTROL.  THEY ALSO DO NOT REPORT WEATHER SUCH
AS PRECIPITATION OR FOG.

IAZ001>003-012>014-020>022-031>034-043>046-031400-
   NORTHWEST IOWA

CITY           SKY/WX    TMP DP  RH WIND       PRES   REMARKS
CARROLL *      CLOUDY    30  28  93 S6        29.66F FOG     WCI  24
DENNISON *     CLOUDY    30  30 100 SW6       29.64S FOG     WCI  24
LE MARS *      CLOUDY    28  28 100 CALM      29.66F FOG
ORANGE CITY *  CLOUDY    27  21  80 CALM      29.64F
SIOUX CITY     CLOUDY    29  27  92 W5        29.69R FOG     WCI  24
SPENCER        CLOUDY    26  21  81 S6        29.68R WCI  19
$$

IAZ055>058-069>071-079>083-090>094-031400-
   SOUTHWEST IOWA

CITY           SKY/WX    TMP DP  RH WIND       PRES   REMARKS
ATLANTIC *     CLOUDY    32  32 100 S8        29.66S FOG     WCI  25
AUDUBON *      MIX PCPN  30  27  86 S7        29.65F WCI  23
CLARINDA *     CLOUDY    34  34 100 S8        29.69F FOG     WCI  27
COUNCIL BLFS * FOG       32  32 100 SE5       29.63F VSB 3/4 WCI  27
CRESTON *      CLOUDY    32  32 100 S14       29.66F FOG     WCI  22
HARLAN *       CLOUDY    30  30 100 S7        29.68F FOG     WCI  23
LAMONI         CLOUDY    32  31  96 S14       29.68F FOG     WCI  22
$$

IAZ047>049-059>061-072>074-084-031400-
   CENTRAL IOWA

CITY           SKY/WX    TMP DP  RH WIND       PRES   REMARKS
AMES           CLOUDY    28  26  92 S8        29.68F FOG     WCI  20
ANKENY *       CLOUDY    30  28  93 S8        29.69F FOG     WCI  23
BOONE *        MIX PCPN  28  28 100 S9        29.65F VSB 3/4 WCI  20
CHARITON *     FOG       32  32 100 S14       29.69F VSB 3/4 WCI  22
DES MOINES     FRZ DRZL  31  29  92 S8        29.69F FOG     WCI  23
GRINNELL *     CLOUDY    28  27  94 S13       29.71F FOG     WCI  18
KNOXVILLE *    CLOUDY    30  28  93 S9        29.71S FOG     WCI  22
MARSHALLTOWN   CLOUDY    28  26  92 S14G21    29.68F FOG     WCI  17
PELLA *        CLOUDY    30  30 100 S5        29.74S FOG     WCI  25
PERRY *          N/A     31  31 100 S9        29.67F FOG     WCI  22
$$

IAZ004>006-015-016-023>025-035-036-031400-
   NORTH CENTRAL IOWA

CITY           SKY/WX    TMP DP  RH WIND       PRES   REMARKS
ALGONA *       CLOUDY    25  23  93 S10       29.69R WCI  15
CLARION *      FOG       27  27 100 S9        29.68F VSB 1   WCI  17
ESTHERVILLE    CLOUDY    23  20  88 S7        29.66F WCI  15
FORT DODGE *   CLOUDY    27  25  93 S7        29.68F WCI  19
MASON CITY     CLOUDY    24  21  88 SE10      29.68F FOG     WCI  14
WEBSTER CITY * CLOUDY    27  27 100 SE8       29.65F FOG     WCI  18
IOWA FALLS *   MIX PCPN  27  25  93 SE7       29.69F WCI  19
$$

IAZ007>011-017>019-026>030-037>042-050>054-066-031400-
   NORTHEAST IOWA

CITY           SKY/WX    TMP DP  RH WIND       PRES   REMARKS
CEDAR RAPIDS   CLOUDY    29  27  92 S16G26    29.71F WCI  17
CHARLES CITY * CLOUDY    25  25 100 SE10      29.70F FOG     WCI  15
CLINTON *      CLOUDY    28  27  93 S18       29.82F WCI  16
DECORAH *      CLOUDY    23  21  93 SE7       29.72S FOG     WCI  15
DUBUQUE        CLOUDY    24  22  91 S17       29.72F FOG     WCI  11
MONTICELLO *   CLOUDY    28  28 100 S16G24    29.73F WCI  17
OELWEIN *      CLOUDY    25  25 100 SE9       29.71F FOG     WCI  15
WATERLOO       CLOUDY    26  25  96 S6        29.71F FOG     WCI  19
$$

IAZ064-065-067-068-078-031400-
   EAST CENTRAL IOWA

CITY           SKY/WX    TMP DP  RH WIND       PRES   REMARKS
DAVENPORT      FRZ RAIN  29  25  85 S21       29.78F FOG     WCI  16
IOWA CITY      CLOUDY    30  28  92 S13       29.77F WCI  20
MT. PLEASANT * CLOUDY    28  28 100 S12G20    29.76F FOG     WCI  18
MUSCATINE *    CLOUDY    30  28  93 S14       29.78F WCI  20
QUAD CITIES    FRZ RAIN  29  26  89 S15G25    29.77F FOG     WCI  18
$$

IAZ062-063-075>077-085>089-095>099-031400-
   SOUTHEAST IOWA

CITY           SKY/WX    TMP DP  RH WIND       PRES   REMARKS
BURLINGTON     FRZ RAIN  30  29  96 S17G23    29.78F FOG     WCI  18
FAIRFIELD *    CLOUDY    28  27  93 S14G21    29.74F FOG     WCI  17
FORT MADISON * MIX PCPN  28  27  93 S18G24    29.78F WCI  16
KEOKUK *       MIX PCPN  30  28  93 S12       29.78F VSB 1   WCI  21
CENTERVILLE *  CLOUDY    32  32 100 S13G20    29.72F WCI  22
OTTUMWA        CLOUDY    29  27  92 S12       29.72F FOG     WCI  19
WASHINGTON *   CLOUDY    30  30 100 S16       29.75F FOG     WCI  19
$$

ABBREVIATIONS USED IN REMARKS
   TC - TEMPERATURES IN CELSIUS
  WCI - WIND CHILL INDEX
   HX - HEAT INDEX
  VSB - VISIBILITY
$$


USA.gov is the U.S. government's official web portal to all federal, state and local government web resources and services.